When you browse on this site, cookies collect data to enhance your experience and personalize the content and advertising you see.
Visit our Privacy Policy to learn more. By continuing to use the site, you agree to this use of cookies and data.

Meteo orario Gagarino

Oggi, 10 Luglio, Venerdi

Tempo Temperatura Precipitazioni Vento Pressione Umidità
00:00 +11°C° 0 mm 3 m/s 745 mm Hg 88%
01:00 +11°C° 0 mm 3 m/s 744 mm Hg 89%
02:00 +11°C° 0 mm 4 m/s 744 mm Hg 90%
03:00 +12°C° 0 mm 4 m/s 744 mm Hg 89%
04:00 +12°C° 0 mm 5 m/s 743 mm Hg 88%
05:00 +13°C° 0 mm 5 m/s 743 mm Hg 87%
06:00 +14°C° 0.2 mm 5 m/s 742 mm Hg 88%
07:00 +14°C° 0.2 mm 6 m/s 742 mm Hg 90%
08:00 +15°C° 0.2 mm 6 m/s 742 mm Hg 92%
09:00 +16°C° 0.1 mm 6 m/s 742 mm Hg 90%
10:00 +17°C° 0.1 mm 6 m/s 742 mm Hg 89%
11:00 +19°C° 0.1 mm 5 m/s 742 mm Hg 88%
12:00 +20°C° 0.9 mm 6 m/s 742 mm Hg 87%
13:00 +21°C° 0.9 mm 6 m/s 742 mm Hg 85%
14:00 +22°C° 0.9 mm 6 m/s 741 mm Hg 84%
15:00 +22°C° 0.7 mm 6 m/s 742 mm Hg 84%
16:00 +23°C° 0.7 mm 5 m/s 742 mm Hg 85%
17:00 +23°C° 0.7 mm 5 m/s 742 mm Hg 85%
18:00 +22°C° 0.6 mm 4 m/s 742 mm Hg 87%
19:00 +21°C° 0.6 mm 3 m/s 742 mm Hg 90%
20:00 +20°C° 0.6 mm 3 m/s 742 mm Hg 92%
21:00 +20°C° 0.2 mm 3 m/s 742 mm Hg 93%
22:00 +20°C° 0.2 mm 4 m/s 742 mm Hg 93%
23:00 +19°C° 0.2 mm 4 m/s 742 mm Hg 94%

Domani, 11 Luglio, Sabato

Tempo Temperatura Precipitazioni Vento Pressione Umidità
00:00 +19°C° 0.2 mm 4 m/s 741 mm Hg 94%
01:00 +19°C° 0.2 mm 5 m/s 741 mm Hg 93%
02:00 +19°C° 0.2 mm 6 m/s 741 mm Hg 93%
03:00 +19°C° 0.4 mm 5 m/s 742 mm Hg 94%
04:00 +19°C° 0.4 mm 5 m/s 742 mm Hg 95%
05:00 +19°C° 0.4 mm 5 m/s 742 mm Hg 96%
06:00 +19°C° 0.4 mm 5 m/s 743 mm Hg 93%
07:00 +19°C° 0.4 mm 5 m/s 743 mm Hg 90%
08:00 +19°C° 0.4 mm 5 m/s 744 mm Hg 87%
09:00 +19°C° 0 mm 4 m/s 744 mm Hg 82%
10:00 +20°C° 0 mm 4 m/s 744 mm Hg 78%
11:00 +20°C° 0 mm 4 m/s 745 mm Hg 73%
12:00 +20°C° 0 mm 3 m/s 745 mm Hg 70%
13:00 +21°C° 0 mm 3 m/s 745 mm Hg 67%
14:00 +21°C° 0 mm 3 m/s 746 mm Hg 64%
15:00 +20°C° 0 mm 3 m/s 746 mm Hg 68%
16:00 +19°C° 0 mm 3 m/s 746 mm Hg 73%
17:00 +18°C° 0 mm 3 m/s 746 mm Hg 77%
18:00 +17°C° 0 mm 3 m/s 746 mm Hg 76%
19:00 +17°C° 0 mm 3 m/s 746 mm Hg 76%
20:00 +16°C° 0 mm 3 m/s 746 mm Hg 75%
21:00 +14°C° 0.1 mm 4 m/s 747 mm Hg 80%
22:00 +13°C° 0.1 mm 4 m/s 747 mm Hg 85%
23:00 +13°C° 0.1 mm 4 m/s 747 mm Hg 89%

Dopodomani, 12 Luglio, Domenica

Tempo Temperatura Precipitazioni Vento Pressione Umidità
00:00 +12°C° 0.1 mm 3 m/s 747 mm Hg 89%
01:00 +12°C° 0.1 mm 3 m/s 747 mm Hg 88%
02:00 +12°C° 0.1 mm 3 m/s 747 mm Hg 87%
03:00 +11°C° 0.4 mm 3 m/s 747 mm Hg 90%
04:00 +11°C° 0.4 mm 3 m/s 747 mm Hg 93%
05:00 +11°C° 0.4 mm 3 m/s 747 mm Hg 95%
06:00 +11°C° 1.1 mm 3 m/s 747 mm Hg 95%
07:00 +12°C° 1.1 mm 2 m/s 748 mm Hg 96%
08:00 +12°C° 1.1 mm 2 m/s 748 mm Hg 96%
09:00 +12°C° 1.1 mm 2 m/s 748 mm Hg 94%
10:00 +13°C° 1.1 mm 2 m/s 748 mm Hg 91%
11:00 +13°C° 1.1 mm 2 m/s 748 mm Hg 89%
12:00 +14°C° 0.1 mm 2 m/s 748 mm Hg 83%
13:00 +15°C° 0.1 mm 2 m/s 748 mm Hg 76%
14:00 +17°C° 0.1 mm 2 m/s 748 mm Hg 69%
15:00 +17°C° 0 mm 2 m/s 748 mm Hg 69%
16:00 +17°C° 0 mm 2 m/s 748 mm Hg 70%
17:00 +17°C° 0 mm 2 m/s 748 mm Hg 70%
18:00 +16°C° 0 mm 2 m/s 748 mm Hg 74%
19:00 +16°C° 0 mm 2 m/s 748 mm Hg 79%
20:00 +15°C° 0 mm 1 m/s 748 mm Hg 84%
21:00 +14°C° 0.1 mm 2 m/s 748 mm Hg 87%
22:00 +14°C° 0.1 mm 2 m/s 748 mm Hg 89%
23:00 +12°C° 0.1 mm 3 m/s 748 mm Hg 92%

13 Luglio, Lunedi

Tempo Temperatura Precipitazioni Vento Pressione Umidità
00:00 +12°C° 0 mm 3 m/s 747 mm Hg 92%
01:00 +11°C° 0 mm 3 m/s 747 mm Hg 92%
02:00 +11°C° 0 mm 3 m/s 747 mm Hg 92%
03:00 +10°C° 0 mm 3 m/s 747 mm Hg 92%
04:00 +10°C° 0 mm 3 m/s 747 mm Hg 93%
05:00 +9°C° 0 mm 3 m/s 747 mm Hg 93%
06:00 +10°C° 0 mm 3 m/s 747 mm Hg 89%
07:00 +12°C° 0 mm 3 m/s 747 mm Hg 86%
08:00 +13°C° 0 mm 3 m/s 747 mm Hg 82%
09:00 +14°C° 0 mm 4 m/s 747 mm Hg 77%
10:00 +15°C° 0 mm 4 m/s 747 mm Hg 71%
11:00 +17°C° 0 mm 4 m/s 747 mm Hg 66%
12:00 +18°C° 0 mm 4 m/s 746 mm Hg 65%
13:00 +18°C° 0 mm 4 m/s 746 mm Hg 64%
14:00 +18°C° 0 mm 4 m/s 746 mm Hg 64%
15:00 +18°C° 0 mm 3 m/s 746 mm Hg 63%
16:00 +19°C° 0 mm 3 m/s 745 mm Hg 63%
17:00 +19°C° 0 mm 3 m/s 745 mm Hg 62%
18:00 +18°C° 0 mm 2 m/s 745 mm Hg 68%
19:00 +16°C° 0 mm 2 m/s 745 mm Hg 73%
20:00 +15°C° 0 mm 2 m/s 745 mm Hg 79%
21:00 +14°C° 0 mm 2 m/s 745 mm Hg 81%
22:00 +13°C° 0 mm 2 m/s 745 mm Hg 83%
23:00 +12°C° 0 mm 2 m/s 745 mm Hg 85%

14 Luglio, Martedi

Tempo Temperatura Precipitazioni Vento Pressione Umidità
00:00 +12°C° 0 mm 2 m/s 745 mm Hg 87%
01:00 +12°C° 0 mm 2 m/s 745 mm Hg 89%
02:00 +10°C° 0 mm 2 m/s 745 mm Hg 91%
03:00 +10°C° 0 mm 2 m/s 745 mm Hg 92%
04:00 +10°C° 0 mm 2 m/s 744 mm Hg 92%
05:00 +10°C° 0 mm 2 m/s 744 mm Hg 92%
06:00 +12°C° 0 mm 3 m/s 744 mm Hg 88%
07:00 +14°C° 0 mm 3 m/s 744 mm Hg 84%
08:00 +16°C° 0 mm 3 m/s 744 mm Hg 81%
09:00 +18°C° 0 mm 3 m/s 744 mm Hg 74%
10:00 +19°C° 0 mm 4 m/s 744 mm Hg 68%
11:00 +21°C° 0 mm 4 m/s 744 mm Hg 62%
12:00 +21°C° 0 mm 4 m/s 744 mm Hg 61%
13:00 +21°C° 0 mm 4 m/s 744 mm Hg 60%
14:00 +22°C° 0 mm 4 m/s 743 mm Hg 59%
15:00 +21°C° 0.2 mm 4 m/s 743 mm Hg 63%
16:00 +21°C° 0.2 mm 4 m/s 743 mm Hg 67%
17:00 +20°C° 0.2 mm 4 m/s 743 mm Hg 70%
18:00 +19°C° 0.1 mm 3 m/s 743 mm Hg 75%
19:00 +18°C° 0.1 mm 3 m/s 743 mm Hg 80%
20:00 +17°C° 0.1 mm 2 m/s 743 mm Hg 84%
21:00 +16°C° 0 mm 2 m/s 743 mm Hg 86%
22:00 +14°C° 0 mm 2 m/s 743 mm Hg 88%
23:00 +13°C° 0 mm 2 m/s 743 mm Hg 90%

15 Luglio, Mercoledi

Tempo Temperatura Precipitazioni Vento Pressione Umidità
00:00 +13°C° 0 mm 2 m/s 743 mm Hg 90%
01:00 +12°C° 0 mm 2 m/s 743 mm Hg 91%
02:00 +10°C° 0 mm 2 m/s 743 mm Hg 91%
03:00 +10°C° 0 mm 2 m/s 743 mm Hg 91%
04:00 +10°C° 0 mm 2 m/s 743 mm Hg 91%
05:00 +10°C° 0 mm 2 m/s 743 mm Hg 91%
06:00 +12°C° 0 mm 2 m/s 743 mm Hg 86%
07:00 +13°C° 0 mm 3 m/s 743 mm Hg 81%
08:00 +16°C° 0 mm 3 m/s 743 mm Hg 76%
09:00 +17°C° 0 mm 3 m/s 743 mm Hg 70%
10:00 +19°C° 0 mm 3 m/s 743 mm Hg 64%
11:00 +20°C° 0 mm 3 m/s 743 mm Hg 58%
12:00 +20°C° 0 mm 3 m/s 743 mm Hg 57%
13:00 +21°C° 0 mm 3 m/s 743 mm Hg 56%
14:00 +21°C° 0 mm 3 m/s 743 mm Hg 55%
15:00 +21°C° 0 mm 3 m/s 743 mm Hg 57%
16:00 +21°C° 0 mm 3 m/s 743 mm Hg 59%
17:00 +21°C° 0 mm 3 m/s 743 mm Hg 62%
18:00 +20°C° 0 mm 2 m/s 743 mm Hg 67%
19:00 +18°C° 0 mm 2 m/s 743 mm Hg 73%
20:00 +18°C° 0 mm 1 m/s 743 mm Hg 79%
21:00 +16°C° 0 mm 1 m/s 743 mm Hg 80%
22:00 +15°C° 0 mm 1 m/s 743 mm Hg 82%
23:00 +12°C° 0 mm 0 m/s 743 mm Hg 84%
Mostrare altro